Showing default

ION SCV-016, 62628

Orbit data source: Space-Track

ION SCV-016, 62628 is a payload satellite owned by D-ORBIT (IT) in SSO that was launched on Tue, 14 Jan 2025 UTC via an FALCON 9 launch vehicle from the Air Force Western Test Range (AFWTR). Payload-class satellites include a variety of spacecraft equipped with specific instruments for various scientific and technological missions. These include communications satellites like Starlink; space stations such as the ISS; scientific satellites like the Hubble; Earth observation satellites from companies like Planet Labs, Umbra, and HawkEye 360; GPS; miniature CubeSats for education and research; and military/defense satellites.

Loading next visibility...
Identifier
62628, 2025-009V
Orbit
SSO
Country
Flag of ITIT
Related business
Manufacturer
D-ORBIT
Mission
Operational Commercial Technology
Bus & Motor
ION-SC, PM200
Mass
220 kg wet, 150 kg dry
Launch date (UTC)
2025-01-14 (9 months ago)
Launch vehicle
FALCON 9
Launch site
Air Force Western Test Range (AFWTR)
Object type
Payload
Rocket body
Debris
Shape & HBR
Box, 1.4 m
Radar Cross Section
0.240 m², Medium (>0.1 m² and < 1m²)

Expand to show TLE details & history
Last TLE update: 7 hours ago

TLE from 7 hours ago
0 ION SCV-016
1 62628U 25009V   25290.92227291  .00041947  00000-0  94345-3 0  9995
2 62628  97.4728 351.7147 0619254 144.7291 219.6569 14.43142764 40532
Epoch: 2025-10-17T22:08Z
TLE epoch observation values (Epoch: 2025-10-17T22:08:04.379Z)
Latitude
-0.00001°
Longitude
-6.96424°
Altitude
1,101.335 km
Speed
7.12 km/s
True Right ascension
23h 26m 51s
True Declination
0° 00' 00"
Sunlit
Object was in full shadow at epoch
Visualization orbit readout
Latitude
Unknown
Longitude
Unknown
Altitude
Unknown
Speed
Unknown
Apparent Right ascension
Unknown
Apparent Declination
Unknown
Sunlit
N/A
Visualization observer readout
Local Sidereal Time
00:17:37
Azimuth
Unknown
Elevation
Unknown
Doppler factor
Unknown
Orbital elements
Apogee altitude
1,186.303 km
Perigee altitude
304.074 km
Semi-major axis
7,123.326 km
Eccentricity
0.06193
Inclination
97.4728°
RAAN
351.7147°
Arg. of periapsis
144.7291°
True anomaly
215.38738°
Mean anomaly
219.6569°
Eccentric anomaly
217.49712°
Mean motion
3.6101 °/min
Orbital period
99.72 mins
BSTAR
0.00094345
Loading maneuver chart data...
Computing Atmospheric mass density...
Loading historical data...
Loading historical data...
Loading historical data...
Loading historical data...
Loading historical data...
Loading historical data...
Loading historical data...

Documentation

Showing up to 5 results
|